Location: Buffign�court
(47.8126°N, 6.0176°E)
Time: 14:17:31
(UTC+00:00)

Cosmos 1703 - Pass Details

Date: 16 June 2021
Orbit: 522 x 540 km, 82.5° (Epoch: 31 July)

Event Time Altitude Azimuth Distance (km) Brightness Sun altitude
Exits shadow 22:49:56 34° 125° (SE) 903 4.0 -18.0°
Maximum altitude 22:50:49 39° 93° (E) 820 4.0 -18.1°
Drops below altitude 10° 22:54:31 10° 24° (NNE) 1,807 6.8 -18.2°
Sets 22:56:46 0° 17° (NNE) 2,706 8.0 -18.2°
